Home > Weather > Hangzhou > Past weeks

Flag for China Weather for the Past 2 Weeks in Hangzhou, Zhejiang, China

Now
34 °F

Clear.


Feels Like: 27 °F
Forecast: 30 / 45 °F
Wind: 8 mph from Northwest

Location: Hangzhou Airport

Current Time: Feb 15, 2016 at 6:19:15 AM

Latest Report: Feb 15, 2016 at 5:30 AM


Visibility: 10 mi

Pressure: 30.51 "Hg

Humidity: 51%

Dew point: 18 °F

Location of HangzhouLocation

Historic Weather in Hangzhou — Graph

°F

Hangzhou Temperature Yesterday

Maximum temperature yesterday: 46 °F (at 12:00 AM)
Minimum temperature yesterday: 36 °F (at 8:00 AM)
Average temperature yesterday: 41 °F

High & Low Weather Summary for the Past Weeks

 TemperatureHumidityPressure
High79 °F (Feb 12, 1:00 PM)100% (Jan 31, 6:00 PM)30.60 "Hg (Jan 31, 6:00 PM)
Low28 °F (Feb 2, 7:00 AM)20% (Feb 9, 2:00 PM)29.68 "Hg (Feb 13, 4:00 AM)
Average45 °F68%30.25 "Hg
* Reported Jan 31 4:00 AM — Feb 15 4:30 AM, Hangzhou, Weather by CustomWeather, © 2016

Note: Actual official high and low records may vary slightly from our data, if they occured in-between our weather recording intervals... More about our weather records

Advertising

Hangzhou Weather History for the Previous 24 Hours

 ConditionsComfort  
Time TempWeatherWind HumidityBarometerVisibility
4:30 AM
Mon, Feb 15
34 °FClear.8 mph48%30.48 "Hg10 mi
4:00 AM36 °FPassing clouds.13 mph41%30.48 "HgN/A
3:30 AM36 °FPassing clouds.13 mph41%30.48 "HgN/A
3:00 AM36 °FPassing clouds.13 mph41%30.48 "HgN/A
2:30 AM36 °FPassing clouds.8 mph41%30.48 "HgN/A
2:00 AM36 °FPassing clouds.10 mph41%30.48 "HgN/A
1:30 AM37 °FPassing clouds.10 mph41%30.48 "HgN/A
1:00 AM37 °FPassing clouds.15 mph45%30.51 "HgN/A
12:30 AM39 °FPassing clouds.13 mph42%30.51 "HgN/A
12:00 AM39 °FPassing clouds.10 mph45%30.51 "HgN/A
11:30 PM
Sun, Feb 14
39 °FPassing clouds.13 mph42%30.48 "HgN/A
11:00 PM39 °FPassing clouds.13 mph42%30.48 "HgN/A
10:30 PM41 °FPassing clouds.10 mph42%30.48 "HgN/A
10:00 PM41 °FPassing clouds.10 mph42%30.48 "HgN/A
9:30 PM41 °FPassing clouds.13 mph42%30.48 "HgN/A
9:00 PM41 °FPassing clouds.13 mph42%30.45 "HgN/A
8:30 PM41 °FPassing clouds.13 mph45%30.42 "HgN/A
8:00 PM41 °FPassing clouds.13 mph49%30.42 "HgN/A
7:30 PM41 °FPassing clouds.10 mph53%30.39 "HgN/A
7:00 PM41 °FPassing clouds.10 mph57%30.39 "HgN/A
6:30 PM43 °FPassing clouds.10 mph53%30.36 "HgN/A
6:00 PM43 °FPassing clouds.10 mph53%30.36 "HgN/A
5:30 PM43 °FPartly sunny.10 mph53%30.36 "HgN/A
5:00 PM41 °FPartly sunny.10 mph57%30.36 "HgN/A
4:30 PM41 °FPartly sunny.13 mph57%30.36 "HgN/A
3:30 PM41 °FPartly sunny.10 mph57%30.33 "HgN/A
3:00 PM41 °FPartly sunny.10 mph57%30.36 "HgN/A
2:30 PM41 °FPartly sunny.10 mph57%30.36 "HgN/A
2:00 PM41 °FPartly sunny.8 mph61%30.36 "HgN/A
1:30 PM41 °FPartly sunny.10 mph61%30.36 "HgN/A
1:00 PM41 °FScattered clouds.10 mph61%30.36 "HgN/A
12:30 PM39 °FScattered clouds.13 mph65%30.36 "HgN/A
12:00 PM39 °FScattered clouds.13 mph61%30.39 "HgN/A
11:30 AM39 °FScattered clouds.10 mph61%30.39 "HgN/A
11:00 AM37 °FScattered clouds.13 mph65%30.39 "HgN/A
10:30 AM37 °FScattered clouds.13 mph70%30.36 "HgN/A
10:00 AM37 °FScattered clouds.10 mph70%30.39 "HgN/A
9:30 AM37 °FBroken clouds.10 mph70%30.36 "HgN/A
9:00 AM36 °FPartly sunny.13 mph81%30.36 "HgN/A
8:30 AM36 °FSleet. Broken clouds.15 mph81%30.36 "HgN/A
8:00 AM36 °FBroken clouds.17 mph81%30.36 "HgN/A
7:30 AM37 °FLight rain. Broken clouds.20 mph81%30.33 "HgN/A
7:00 AM39 °FLight rain. Partly sunny.17 mph75%30.30 "HgN/A
6:30 AM39 °FLight rain. Passing clouds.17 mph75%30.30 "Hg5 mi
Weather by CustomWeather, © 2016

See weather overviewHow to use our weather pages